Hourly Weather Roundup
Issued by NWS Central Illinois

Home | Current Version | Previous Version | Text Only | Print | Product List | Glossary On
Versions: 1 2 3 4 5 6 7 8 9 10 11 12 13 14 15 16 17 18 19 20 21 22 23 24 25 26 27 28 29 30 31 32 33 34 35 36 37 38 39 40 41 42 43 44 45 46 47 48 49 50
000
NZUS43 KILX 232310
HWRILX

Area Weather Roundup
National Weather Service Lincoln IL
600 PM CDT WED MAY 23 2018

NOTE:  "FAIR" indicates few or no clouds below 12,000 feet, with
       no sigificant weather and/or obstructions to visibility.


CITY           SKY/WX    TMP DP  RH WIND       PRES   REMARKS
Bloomington    FAIR      84  51  31 SE9       30.11F HX  82
Champaign      FAIR      84  50  30 E8        30.11F HX  82
Danville       FAIR      81  57  43 E9        30.10S HX  81
Decatur        FAIR      84  51  31 NE9       30.09F HX  82
Effingham      FAIR      84  56  37 NE7       30.11S HX  83
Flora          FAIR      86  60  41 N8        30.08F HX  86
Galesburg        N/A     83  61  46 CALM      30.11F HAZE    HX  83
Jacksonville   SUNNY     84  61  45 NE3       30.09S HX  84
Lacon          FAIR      82  58  44 CALM      30.10F HX  81
Lawrenceville  FAIR      86  52  30 E12       30.08S HX  84
Litchfield     SUNNY     84  57  39 E9        30.09F HX  83
$$


CITY           SKY/WX    TMP DP  RH WIND       PRES   REMARKS
Lincoln        FAIR      87  54  31 SE7       30.08F HX  85
Macomb         SUNNY     83  63  49 SE6       30.12S HX  84
Mattoon        FAIR      82  60  47 SE8       30.09F HX  82
Mt Carmel AP   FAIR      84  53  34 NE9       30.08S HX  82
Olney-Noble AP FAIR      83  55  37 NE8       30.09S HX  82
Paris AP       FAIR      83  57  41 E9        30.11S HX  83
Peoria         FAIR      83  58  42 NE7       30.10F HX  83
Pontiac        FAIR      84  51  30 E8        30.12S HX  82
Rantoul        FAIR      85  53  33 E8        30.11F HX  83
Robinson       FAIR      82  61  49 E6        30.10S HX  82
Springfield    FAIR      87  58  37 E7        30.08F HX  86
Taylorville    FAIR      85  55  34 NE6       30.09F HX  84
$$

...REGIONAL REPORTS...


CITY           SKY/WX    TMP DP  RH WIND       PRES   REMARKS
Chicago O`Hare FAIR      78  47  33 E9        30.14S
Kankakee       FAIR      80  53  39 E9        30.13S HX  80
La Salle       FAIR      80  60  49 E6        30.13S HX  81
Moline         FAIR      83  63  50 NE9       30.09F HX  84
Mount Sterling SUNNY     83  63  50 E5        30.09F HX  84
Mount Vernon   FAIR      83  62  49 N6        30.08F HX  84
Pittsfield     SUNNY     85  65  51 E5        30.11S HX  86
Quincy         SUNNY     84  62  47 E7        30.09F HX  85
Rockford       PTSUNNY   78  57  48 S5        30.14F
$$


CITY           SKY/WX    TMP DP  RH WIND       PRES   REMARKS
Burlington     MOSUNNY   85  63  47 S7        30.08F HX  86
Cedar Rapids   FAIR      82  64  54 SE9       30.08F HX  83
Des Moines     MOSUNNY   86  65  49 SE14      30.04S HX  88
Kirksville     SUNNY    N/A N/A N/A SE13      30.08F
Ottumwa        SUNNY     85  64  49 SE10      30.07S HX  86
St Louis       MOSUNNY   85  64  49 E6        30.09F HX  86
$$


CITY           SKY/WX    TMP DP  RH WIND       PRES   REMARKS
Terre Haute    FAIR      82  56  40 E8        30.10S HX  82
Evansville     FAIR      84  61  45 NE7       30.07F HX  84
Indianapolis   FAIR      81  51  35 NE8       30.11F HX  80
Lafayette      FAIR      79  52  38 E8        30.11F
Madison        PTSUNNY   78  60  53 SW3       30.13F
Milwaukee      PTSUNNY   72  53  51 SE12      30.16S
$$





USA.gov is the U.S. government's official web portal to all federal, state and local government web resources and services.